Weather in Kaleykino

Russia / Republic of Tatarstan     54°55′56″N   52°11′30″E
temp.,
°C
wind,
m/s
gust,
m/s
humid.,
%
clouds,
%
prec.,
mm/h
press.,
hPa
HPBL,
m
14 may, fri
fri1400:00+17sse33628 0.0 102422
03:00+16se336094 0.0 102421
06:00+18se38575 0.0 1024219
09:00+24s683972 0.1 1024654
12:00+27s68305 0.1 10231125
15:00+27s693461 0.1 10221503
18:00+23s4950100 0.0 1022190
21:00+19sse34551 0.0 102250
15 may, sat
sat1500:00+17s355972 0.0 102260
03:00+16ssw335586 0.0 102234
06:00+19s3105436 0.0 1022263
09:00+25ssw6934100 0.0 1022541
12:00+28ssw782847 0.0 10211083
15:00+28ssw673284 0.0 10211345
18:00+24s37495 0.0 1020133
21:00+20s35471 0.0 102047
16 may, sun
sun1600:00+18s34495 0.0 102043
03:00+17s33515 0.0 102028
06:00+20sse38555 0.0 1020192
09:00+26ssw68370 0.0 1019684
12:00+29ssw67270 0.0 10192745
15:00+29ssw69304 0.0 10183341
18:00+25ssw410445 0.0 1017261
21:00+20ssw334990 0.0 101829
17 may, mon
mon1700:00+19s335183 0.0 101830
03:00+18s225496 0.0 101816
06:00+20ssw2859100 0.0 1019261
09:00+26sw584113 0.0 1018570
12:00+29wsw67305 0.0 10182150
15:00+29wsw563213 0.0 10182625
18:00+26sw354682 0.0 101768
21:00+20s22515 0.2 101815
18 may, tue
tue1800:00+18ssw22666 0.0 101811
03:00+18nnw226418 0.0 101811
06:00+21sw115273 0.0 101867
09:00+25nw2240100 0.0 1018439
12:00+29wsw1232100 0.0 10171691
15:00+29wnw3430100 0.0 10162938
18:00+24se225196 0.0 101639
21:00+20sse2251100 0.0 101715